Weather Roundup
Issued by NWS Chicago, IL

Home | Current Version | Previous Version | Text Only | Print | Product List | Glossary Off
Versions: 1 2 3 4 5 6 7 8 9 10 11 12 13 14 15 16 17 18 19 20 21 22 23 24 25 26 27 28 29 30 31 32 33 34 35 36 37 38 39 40 41 42 43 44 45 46 47 48 49 50

000
NZUS59 KLOT 310158
HRRLOT

CHICAGO AREA WEATHER ROUNDUP
NATIONAL WEATHER SERVICE CHICAGO/ROMEOVILLE IL
800 PM CST FRI JAN 30 2015

NOTE: "FAIR" INDICATES FEW OR NO CLOUDS BELOW 12,000 FEET WITH NO
SIGNIFICANT WEATHER AND/OR OBSTRUCTIONS TO VISIBILITY.

* THESE STATIONS ARE NOT UNDER NWS QUALITY CONTROL. THEY ALSO MAY NOT
  REPORT WEATHER SUCH AS PRECIPITATION OR FOG.

ILZ005-006-012>014-019>023-310300-
NORTHEAST ILLINOIS

CITY           SKY/WX    TMP DP  RH WIND       PRES   REMARKS
OHARE            N/A     23  12  62 CALM      30.41S
MIDWAY         PTCLDY    25  14  63 W5        30.42F WCI  19
AURORA         CLEAR     21  13  71 CALM      30.41F
WAUKEGAN       NOT AVBL
DUPAGE AIRPORT CLEAR     21  13  71 SW5       30.40F WCI  15
WHEELING       CLEAR     24  11  57 CALM      30.43S
NORTHERLY IS     N/A     27  15  61 W6          N/A  WCI  21
$$

WIZ051-052-058>065-066-070>072-310300-
SOUTHEAST WISCONSIN

CITY           SKY/WX    TMP DP  RH WIND       PRES   REMARKS
MILWAUKEE      MOCLDY    23   9  55 SW5       30.39F WCI  17
KENOSHA*       CLOUDY    22  11  62 SW5       30.39F WCI  16
RACINE*        PTCLDY    23  10  57 SW5       30.41F WCI  17
WAUKESHA       CLOUDY    19   9  63 CALM      30.38F
$$

INZ001>003-010>013-019-020-310300-
NORTHWEST INDIANA

CITY           SKY/WX    TMP DP  RH WIND       PRES   REMARKS
GARY*          CLEAR     21  14  73 CALM      30.43F
MICHIGAN CITY* NOT AVBL
RENSSELAER*    NOT AVBL
$$

LMZ740>746-310300-
SOUTHERN LAKE MICHIGAN

STATION/POSITION TIME  SKY/WX   TEMP WIND        PRES    VSBY
                                AIR  DIR/SP/G
                 (UTC)          (F)  (DEG/KT/KT) (MB)    (MI)
HARRISON CRIB    0100            26  180/ 11/ 13   N/A
BURNHAM HARBOR   0100            26  180/  4/  6   N/A
CALUMET HARBOR   0100            26  210/  3/  4   N/A
BURNS HARBOR     NOT AVBL
MICHIGAN CITY    0100            24  120/  3/  4   N/A
$$

ABBREVIATIONS USED IN REMARKS
   TC - TEMPERATURE IN CELSIUS
  WCI - WIND CHILL INDEX
   HX - HEAT INDEX
  VSB - VISIBILITY
$$



USA.gov is the U.S. government's official web portal to all federal, state and local government web resources and services.